Date,Time,Wetness (Wet Dry or Ice),Wind Speed (m/s),Temperature (C),Humidity (%),Pressure (mb),Radiation (W/m^2)
2022-05-18,21:50:00,DRY,0.47,11.50,34.3,775.00,1.8
2022-05-18,21:55:00,DRY,1.00,11.75,30.5,775.00,2.0
2022-05-18,22:00:00,DRY,0.93,11.70,29.0,775.00,1.6
2022-05-18,22:05:00,DRY,1.05,12.00,29.0,775.00,1.5
2022-05-18,22:10:00,DRY,1.20,11.97,26.0,775.00,1.0
2022-05-18,22:15:00,DRY,0.50,11.80,26.5,775.00,1.1
2022-05-18,22:20:00,DRY,0.43,11.40,24.7,775.00,0.8
2022-05-18,22:25:00,DRY,0.65,11.25,21.0,775.00,1.7
2022-05-18,22:30:00,DRY,0.50,11.30,20.7,775.00,1.4
2022-05-18,22:35:00,DRY,0.70,11.20,21.0,775.00,1.7
2022-05-18,22:40:00,DRY,0.57,11.30,21.0,775.00,1.3
2022-05-18,22:45:00,DRY,0.40,11.20,21.0,775.00,1.5
2022-05-18,22:50:00,DRY,0.77,11.33,20.0,775.00,0.9
2022-05-18,22:55:00,DRY,0.80,11.45,20.0,775.00,1.5
2022-05-18,23:00:00,DRY,0.83,11.50,19.7,775.00,1.2
2022-05-18,23:05:00,DRY,1.60,11.40,26.0,775.00,1.2
2022-05-18,23:10:00,DRY,1.97,11.00,35.3,775.00,1.3
2022-05-18,23:15:00,DRY,2.65,10.50,49.5,775.00,0.8
2022-05-18,23:20:00,DRY,2.93,10.27,55.0,775.00,0.8
2022-05-18,23:25:00,DRY,2.45,10.15,56.0,775.00,0.8
2022-05-18,23:30:00,DRY,1.80,10.03,55.3,775.00,1.4
2022-05-18,23:35:00,DRY,0.85,10.35,42.0,775.00,1.1
2022-05-18,23:40:00,DRY,0.30,10.70,30.3,775.00,1.2
2022-05-18,23:45:00,DRY,0.90,11.00,30.5,775.00,1.8
2022-05-18,23:50:00,DRY,1.87,10.90,34.0,775.00,1.2
2022-05-18,23:55:00,DRY,2.20,10.25,48.0,775.00,1.6
2022-05-19,00:00:00,DRY,2.40,10.17,48.7,775.00,1.5
2022-05-19,00:05:00,DRY,2.45,10.25,46.5,775.00,0.8
2022-05-19,00:10:00,DRY,2.43,10.20,43.3,775.00,1.1
2022-05-19,00:15:00,DRY,2.70,10.40,37.5,775.00,1.7
2022-05-19,00:20:00,DRY,2.57,10.30,37.0,775.00,1.2
2022-05-19,00:25:00,DRY,2.30,10.35,36.0,775.00,1.4
2022-05-19,00:30:00,DRY,2.43,10.30,37.7,775.00,0.8
2022-05-19,00:35:00,DRY,2.70,10.30,37.0,775.00,1.0
2022-05-19,00:40:00,DRY,2.67,10.33,37.3,775.00,1.3
2022-05-19,00:45:00,DRY,2.35,10.35,33.5,775.00,1.3
2022-05-19,00:50:00,DRY,2.23,10.57,40.0,775.00,0.7
2022-05-19,00:55:00,DRY,2.05,10.75,43.5,774.50,0.6
2022-05-19,01:00:00,DRY,1.87,10.90,42.0,774.33,1.0
2022-05-19,01:05:00,DRY,1.65,11.10,39.5,774.00,1.6
2022-05-19,01:10:00,DRY,2.37,11.10,39.7,774.00,1.5
2022-05-19,01:15:00,DRY,3.30,10.80,41.0,774.00,1.3
2022-05-19,01:20:00,DRY,3.30,10.77,32.7,774.00,1.3
2022-05-19,01:25:00,DRY,3.30,10.60,31.0,774.00,0.9
2022-05-19,01:30:00,DRY,3.10,10.63,33.7,774.00,0.8
2022-05-19,01:35:00,DRY,2.95,10.60,37.0,774.00,0.5
2022-05-19,01:40:00,DRY,2.70,10.63,32.3,774.00,1.2
2022-05-19,01:45:00,DRY,2.90,10.90,25.0,774.00,1.0
2022-05-19,01:50:00,DRY,2.60,10.93,25.7,774.00,1.6
2022-05-19,01:55:00,DRY,2.30,11.30,30.0,774.00,1.6
2022-05-19,02:00:00,DRY,2.47,11.30,30.7,774.00,1.4
2022-05-19,02:05:00,DRY,3.00,11.10,28.5,774.00,1.7
2022-05-19,02:10:00,DRY,2.47,11.23,29.7,774.00,1.3
2022-05-19,02:15:00,DRY,2.65,11.30,30.0,774.00,1.0
2022-05-19,02:20:00,DRY,3.07,11.27,29.0,774.00,1.0
2022-05-19,02:25:00,DRY,3.30,11.25,31.0,774.00,0.8
2022-05-19,02:30:00,DRY,3.27,11.30,30.3,774.00,1.6
2022-05-19,02:35:00,DRY,2.55,11.40,29.0,774.00,1.7
2022-05-19,02:40:00,DRY,3.00,11.30,29.0,774.00,0.8
2022-05-19,02:45:00,DRY,3.00,11.10,28.5,774.00,1.4
2022-05-19,02:50:00,DRY,2.47,10.87,29.0,774.00,1.2
2022-05-19,02:55:00,DRY,2.50,11.20,29.0,774.00,1.2
2022-05-19,03:00:00,DRY,2.33,11.40,30.0,774.00,1.0
2022-05-19,03:05:00,DRY,2.05,11.05,31.0,774.00,0.4
2022-05-19,03:10:00,DRY,1.87,11.27,31.7,774.00,1.0
2022-05-19,03:15:00,DRY,2.25,11.40,30.5,774.00,1.1
2022-05-19,03:20:00,DRY,2.13,11.30,30.0,773.67,0.7
2022-05-19,03:25:00,DRY,2.15,11.00,30.0,773.00,0.8
2022-05-19,03:30:00,DRY,2.20,10.67,30.7,773.67,2.6
2022-05-19,03:35:00,DRY,2.40,10.50,28.0,773.00,2.0
2022-05-19,03:40:00,DRY,2.70,10.47,24.3,773.00,0.8
2022-05-19,03:45:00,DRY,2.55,10.90,24.5,773.00,0.4
2022-05-19,03:50:00,DRY,2.63,10.80,24.0,773.00,1.2
2022-05-19,03:55:00,DRY,3.05,10.70,28.5,773.00,0.8
2022-05-19,04:00:00,DRY,3.23,11.07,28.0,773.00,0.9
2022-05-19,04:05:00,DRY,2.55,11.15,25.0,773.00,0.8
2022-05-19,04:10:00,DRY,2.23,11.10,27.0,773.00,1.7
2022-05-19,04:15:00,DRY,2.10,10.90,25.5,773.00,0.6
2022-05-19,04:20:00,DRY,2.43,11.30,24.3,773.00,1.6
2022-05-19,04:25:00,DRY,1.85,11.30,24.5,773.00,1.5
2022-05-19,04:30:00,DRY,2.97,11.30,24.3,773.00,1.3
2022-05-19,04:35:00,DRY,2.45,10.95,23.5,773.00,1.2
2022-05-19,04:40:00,DRY,2.20,11.40,23.0,773.00,1.2
2022-05-19,04:45:00,DRY,2.30,11.50,22.5,773.00,1.0
2022-05-19,04:50:00,DRY,2.50,11.30,22.3,773.00,1.4
2022-05-19,04:55:00,DRY,2.20,11.55,21.5,773.00,1.2
2022-05-19,05:00:00,DRY,2.33,11.73,22.0,773.00,0.8
2022-05-19,05:05:00,DRY,2.20,11.60,22.0,773.00,1.4
2022-05-19,05:10:00,DRY,2.07,11.33,22.3,773.00,2.0
2022-05-19,05:15:00,DRY,2.20,11.40,22.0,773.00,0.8
2022-05-19,05:20:00,DRY,2.57,10.70,29.7,773.00,1.4
2022-05-19,05:25:00,DRY,2.60,10.25,32.5,773.00,1.1
2022-05-19,05:30:00,DRY,2.97,9.93,32.0,773.00,1.1
2022-05-19,05:35:00,DRY,2.55,10.10,26.5,773.00,0.4
2022-05-19,05:40:00,DRY,1.90,10.40,24.0,773.00,1.1
2022-05-19,05:45:00,DRY,1.90,10.65,22.5,773.00,1.5
2022-05-19,05:50:00,DRY,1.47,10.93,20.0,773.00,1.1
2022-05-19,05:55:00,DRY,1.95,11.30,19.0,773.00,1.4
2022-05-19,06:00:00,DRY,1.83,11.33,20.7,773.00,1.8
2022-05-19,06:05:00,DRY,1.80,10.40,22.0,773.00,2.8
2022-05-19,06:10:00,DRY,1.63,10.67,22.0,773.00,3.0
2022-05-19,06:15:00,DRY,1.70,11.05,21.0,773.00,6.7
2022-05-19,06:20:00,DRY,1.93,11.13,21.3,773.00,11.0
2022-05-19,06:25:00,DRY,1.65,10.95,22.0,773.00,20.1
2022-05-19,06:30:00,DRY,1.80,11.03,21.7,773.00,42.9
2022-05-19,06:35:00,DRY,2.55,11.40,20.0,773.00,58.0
2022-05-19,06:40:00,DRY,1.77,11.47,20.7,773.00,78.7
2022-05-19,06:45:00,DRY,1.80,11.00,23.5,773.00,106.0
2022-05-19,06:50:00,DRY,1.60,11.23,22.7,773.00,132.1
2022-05-19,06:55:00,DRY,2.05,11.15,26.0,773.00,151.4
2022-05-19,07:00:00,DRY,2.23,11.10,32.3,773.00,173.5
2022-05-19,07:05:00,DRY,1.90,11.25,32.0,773.00,197.2
2022-05-19,07:10:00,DRY,2.07,11.30,27.0,773.00,218.5
2022-05-19,07:15:00,DRY,2.45,11.30,23.5,773.00,241.4
2022-05-19,07:20:00,DRY,3.03,11.33,27.7,773.00,265.6
2022-05-19,07:25:00,DRY,2.70,11.55,31.0,773.00,288.7
2022-05-19,07:30:00,DRY,2.73,11.67,27.0,773.00,311.1
2022-05-19,07:35:00,DRY,1.80,11.75,26.5,773.00,334.5
2022-05-19,07:40:00,DRY,2.67,11.90,27.0,773.00,358.0
2022-05-19,07:45:00,DRY,1.50,12.20,25.5,773.00,382.4
2022-05-19,07:50:00,DRY,1.90,12.23,25.0,773.00,405.2
2022-05-19,07:55:00,DRY,2.45,12.30,25.5,773.00,428.0
2022-05-19,08:00:00,DRY,1.27,12.43,23.0,773.00,450.4
2022-05-19,08:05:00,DRY,2.60,12.60,21.0,773.00,474.4
2022-05-19,08:10:00,DRY,1.73,12.70,20.3,773.00,497.5
2022-05-19,08:15:00,DRY,3.35,12.85,20.0,773.00,519.5
2022-05-19,08:20:00,DRY,2.53,13.10,19.3,773.00,542.1
2022-05-19,08:25:00,DRY,2.20,13.20,19.0,773.00,563.8
2022-05-19,08:30:00,DRY,2.23,13.37,19.7,773.00,586.2
2022-05-19,08:35:00,DRY,1.45,13.15,17.0,773.00,607.5
2022-05-19,08:40:00,DRY,2.20,13.03,16.0,773.00,629.3
2022-05-19,08:45:00,DRY,1.80,13.10,16.5,773.00,650.3
2022-05-19,08:50:00,DRY,1.90,13.13,17.0,773.00,671.0
2022-05-19,08:55:00,DRY,2.50,12.90,19.0,773.00,692.6
2022-05-19,09:00:00,DRY,2.60,13.03,19.3,773.00,713.2
2022-05-19,09:05:00,DRY,2.40,13.00,21.0,773.00,732.1
2022-05-19,09:10:00,DRY,1.53,13.03,26.7,773.00,751.6
2022-05-19,09:15:00,DRY,2.30,12.95,28.0,773.00,771.5
2022-05-19,09:20:00,DRY,2.63,13.03,25.3,773.00,791.5
2022-05-19,09:25:00,DRY,2.45,13.25,27.0,773.00,810.5
2022-05-19,09:30:00,DRY,2.27,13.33,26.7,773.00,828.0
2022-05-19,09:35:00,DRY,1.55,13.15,28.5,773.00,846.2
2022-05-19,09:40:00,DRY,1.70,12.90,27.7,773.00,862.4
2022-05-19,09:45:00,DRY,1.35,13.05,27.0,773.00,881.1
2022-05-19,09:50:00,DRY,2.13,13.07,24.7,773.00,899.1
2022-05-19,09:55:00,DRY,2.25,13.45,28.5,773.00,915.2
2022-05-19,10:00:00,DRY,2.33,13.60,30.3,773.00,931.2
2022-05-19,10:05:00,DRY,2.35,13.50,32.0,773.00,946.4
2022-05-19,10:10:00,DRY,2.17,13.80,31.3,773.00,963.5
2022-05-19,10:15:00,DRY,2.45,14.10,33.0,773.00,977.7
2022-05-19,10:20:00,DRY,1.33,13.77,34.0,773.00,993.9
2022-05-19,10:25:00,DRY,0.90,14.10,33.0,773.00,1008.6
2022-05-19,10:30:00,DRY,2.00,14.20,34.7,773.00,1023.4
2022-05-19,10:35:00,DRY,3.00,13.70,27.5,773.00,1038.4
2022-05-19,10:40:00,DRY,1.90,13.90,30.3,773.00,1052.9
2022-05-19,10:45:00,DRY,2.20,14.45,33.0,773.00,1063.9
2022-05-19,10:50:00,DRY,1.77,14.87,35.7,773.00,1077.3
2022-05-19,10:55:00,DRY,3.00,14.80,38.0,773.00,1088.5
2022-05-19,11:00:00,DRY,1.13,14.73,31.3,773.00,1100.7
2022-05-19,11:05:00,DRY,2.00,14.80,39.5,773.00,1111.1
2022-05-19,11:10:00,DRY,2.03,14.87,35.0,773.00,1122.3
2022-05-19,11:15:00,DRY,1.55,14.90,42.0,773.00,1131.5
2022-05-19,11:20:00,DRY,1.37,15.17,34.3,773.00,1139.8
2022-05-19,11:25:00,DRY,1.45,14.95,38.0,773.00,1153.4
2022-05-19,11:30:00,DRY,2.67,15.30,36.3,773.00,1157.9
2022-05-19,11:35:00,DRY,1.55,15.20,36.0,773.00,1167.7
2022-05-19,11:40:00,DRY,3.50,15.07,33.7,773.00,1172.1
2022-05-19,11:45:00,DRY,2.05,15.00,39.5,773.00,1178.6
2022-05-19,11:50:00,DRY,1.50,14.83,39.0,773.00,1188.8
2022-05-19,11:55:00,DRY,1.25,14.80,30.5,773.00,1193.7
2022-05-19,12:00:00,DRY,1.40,14.77,39.3,773.33,1197.5
2022-05-19,12:05:00,DRY,1.50,14.90,39.5,773.50,1198.9
2022-05-19,12:10:00,DRY,1.00,15.53,24.7,773.00,1206.5
2022-05-19,12:15:00,DRY,2.35,15.25,54.0,773.00,1206.5
2022-05-19,12:20:00,DRY,2.00,15.50,54.3,773.33,1212.4
2022-05-19,12:25:00,DRY,1.95,15.20,52.0,773.00,1214.8
2022-05-19,12:30:00,DRY,2.10,14.50,59.7,773.00,1218.7
2022-05-19,12:35:00,DRY,2.45,14.90,58.0,773.00,1216.2
2022-05-19,12:40:00,DRY,1.87,14.77,56.3,773.00,1225.3
2022-05-19,12:45:00,DRY,2.55,14.10,62.5,773.00,1217.3
2022-05-19,12:50:00,DRY,2.50,14.57,64.3,773.00,1216.9
2022-05-19,12:55:00,DRY,2.50,14.85,65.5,773.00,1223.6
2022-05-19,13:00:00,DRY,3.00,15.23,54.0,773.00,1228.4
2022-05-19,13:05:00,DRY,2.50,16.00,46.5,773.00,1230.0
2022-05-19,13:10:00,DRY,3.60,15.27,49.7,773.00,1226.5
2022-05-19,13:15:00,DRY,2.90,14.35,53.5,773.00,1229.7
2022-05-19,13:20:00,DRY,2.17,14.43,54.7,773.00,1223.5
2022-05-19,13:25:00,DRY,3.65,13.80,57.0,773.00,1226.6
2022-05-19,13:30:00,DRY,3.30,14.15,56.5,773.00,1219.7
2022-05-19,13:35:00,DRY,2.20,14.20,50.0,773.00,1238.8
2022-05-19,13:40:00,DRY,2.13,14.93,55.0,773.00,939.3
2022-05-19,13:45:00,DRY,3.95,14.55,64.5,773.00,1282.2
2022-05-19,13:50:00,DRY,2.00,13.37,71.0,773.00,938.6
2022-05-19,13:55:00,DRY,2.70,13.70,66.0,773.00,876.2
2022-05-19,14:00:00,DRY,2.50,13.47,59.3,773.00,811.1
2022-05-19,14:05:00,DRY,2.95,12.70,59.0,773.00,1192.9
2022-05-19,14:10:00,DRY,2.13,14.47,54.3,773.00,1183.8
2022-05-19,14:15:00,DRY,3.05,14.20,55.0,773.00,1171.7
2022-05-19,14:20:00,DRY,2.80,14.00,56.0,773.00,1173.3
2022-05-19,14:25:00,DRY,1.55,14.05,57.5,773.00,1164.3
2022-05-19,14:30:00,DRY,2.23,14.57,57.0,773.00,1158.9
2022-05-19,14:35:00,DRY,3.05,14.50,52.0,773.00,1145.8
2022-05-19,14:40:00,DRY,2.20,14.00,54.3,773.00,1172.0
2022-05-19,14:45:00,DRY,1.65,13.65,51.5,773.00,560.3
2022-05-19,14:50:00,DRY,2.63,13.20,49.7,773.00,764.5
2022-05-19,14:55:00,DRY,2.15,13.80,47.0,773.00,1311.6
2022-05-19,15:00:00,DRY,1.47,14.80,43.3,773.00,1174.4
2022-05-19,15:05:00,DRY,3.20,14.80,40.5,773.00,1126.3
2022-05-19,15:10:00,DRY,2.33,13.57,44.7,773.00,944.4
2022-05-19,15:15:00,DRY,2.10,14.85,43.0,773.00,762.6
2022-05-19,15:20:00,DRY,2.37,13.73,45.0,773.00,541.9
2022-05-19,15:25:00,DRY,2.85,13.80,44.5,773.00,745.0
2022-05-19,15:30:00,DRY,2.37,13.70,42.7,773.00,1094.4
2022-05-19,15:35:00,DRY,1.50,13.25,43.5,773.00,1106.8
2022-05-19,15:40:00,DRY,1.77,14.37,40.3,773.00,990.2
2022-05-19,15:45:00,DRY,2.55,15.10,32.5,773.00,986.9
2022-05-19,15:50:00,DRY,3.03,14.73,36.0,773.00,966.0
2022-05-19,15:55:00,DRY,1.45,13.90,39.5,773.00,949.5
2022-05-19,16:00:00,DRY,2.23,14.80,37.3,773.00,933.8
2022-05-19,16:05:00,DRY,2.00,14.90,37.0,773.00,921.3
2022-05-19,16:10:00,DRY,2.20,15.50,31.0,773.00,903.4
2022-05-19,16:15:00,DRY,3.60,16.05,28.5,773.00,886.2
2022-05-19,16:20:00,DRY,3.13,15.00,36.3,773.00,868.4
2022-05-19,16:25:00,DRY,2.60,15.20,37.5,773.00,853.1
2022-05-19,16:30:00,DRY,2.67,14.93,44.3,773.00,833.9
2022-05-19,16:35:00,DRY,1.60,14.30,40.5,773.00,819.3
2022-05-19,16:40:00,DRY,1.53,15.10,37.7,773.00,801.2
2022-05-19,16:45:00,DRY,2.05,14.60,39.5,773.00,779.9
2022-05-19,16:50:00,DRY,1.63,14.30,36.7,773.00,761.4
2022-05-19,16:55:00,DRY,1.95,14.35,38.0,773.00,741.9
2022-05-19,17:00:00,DRY,1.57,14.37,36.3,773.00,723.3
2022-05-19,17:05:00,DRY,2.05,14.55,34.0,773.00,705.4
2022-05-19,17:10:00,DRY,2.03,14.97,37.7,773.00,684.7
2022-05-19,17:15:00,DRY,1.80,15.00,36.5,773.00,664.0
2022-05-19,17:20:00,DRY,2.27,14.33,35.7,773.00,642.7
2022-05-19,17:25:00,DRY,2.15,14.40,28.5,773.00,621.6
2022-05-19,17:30:00,DRY,2.33,14.30,27.7,773.00,600.2
2022-05-19,17:35:00,DRY,2.60,14.35,22.5,773.00,579.5
2022-05-19,17:40:00,DRY,1.90,14.33,19.3,773.00,557.6
2022-05-19,17:45:00,DRY,1.90,13.70,19.0,773.00,536.3
2022-05-19,17:50:00,DRY,2.23,14.13,18.0,773.00,513.9
2022-05-19,17:55:00,DRY,1.75,14.65,14.0,773.00,491.9
2022-05-19,18:00:00,DRY,1.30,14.40,15.3,773.00,468.8
2022-05-19,18:05:00,DRY,0.75,14.30,15.5,773.00,447.3
2022-05-19,18:10:00,DRY,1.27,14.27,15.0,773.00,424.6
2022-05-19,18:15:00,DRY,1.50,13.90,15.5,773.00,402.9
2022-05-19,18:20:00,DRY,1.90,13.67,16.0,773.00,379.1
2022-05-19,18:25:00,DRY,0.90,13.40,15.0,772.50,356.2
2022-05-19,18:30:00,DRY,1.90,13.63,14.7,772.67,332.4
2022-05-19,18:35:00,DRY,0.95,13.45,13.0,773.00,310.2
2022-05-19,18:40:00,DRY,1.37,13.87,16.3,773.00,286.7
2022-05-19,18:45:00,DRY,1.35,14.15,16.5,772.50,264.1
2022-05-19,18:50:00,DRY,0.80,14.10,15.3,773.00,241.4
2022-05-19,18:55:00,DRY,1.60,14.45,16.5,773.00,220.5
2022-05-19,19:00:00,DRY,1.87,14.10,13.0,773.00,199.2
2022-05-19,19:05:00,DRY,2.05,13.60,13.0,773.00,179.9
2022-05-19,19:10:00,DRY,2.27,13.27,14.0,773.00,160.2
2022-05-19,19:15:00,DRY,1.35,13.25,14.5,773.00,139.9
2022-05-19,19:20:00,DRY,1.40,13.13,13.0,773.00,113.9
2022-05-19,19:25:00,DRY,2.05,13.15,13.5,773.00,89.9
2022-05-19,19:30:00,DRY,1.70,13.03,15.3,773.00,67.1
2022-05-19,19:35:00,DRY,1.10,13.00,22.5,773.00,47.4
2022-05-19,19:40:00,DRY,1.20,13.03,20.0,773.00,33.7
2022-05-19,19:45:00,DRY,1.65,12.65,13.0,773.00,22.2
2022-05-19,19:50:00,DRY,1.87,12.37,14.0,773.00,15.6
2022-05-19,19:55:00,DRY,2.10,12.05,14.0,773.00,11.6
2022-05-19,20:00:00,DRY,2.07,11.67,14.3,773.00,7.8
2022-05-19,20:05:00,DRY,1.15,11.40,15.0,773.00,4.2
2022-05-19,20:10:00,DRY,1.27,11.30,16.0,773.00,3.2
2022-05-19,20:15:00,DRY,0.45,11.35,17.5,773.00,2.0
2022-05-19,20:20:00,DRY,1.60,11.40,14.3,773.00,1.4
2022-05-19,20:25:00,DRY,2.10,11.15,20.5,773.00,0.9
2022-05-19,20:30:00,DRY,1.77,10.93,22.3,773.00,1.3
2022-05-19,20:35:00,DRY,1.55,10.90,20.0,773.00,2.0
2022-05-19,20:40:00,DRY,1.43,10.93,19.3,773.00,1.5
2022-05-19,20:45:00,DRY,1.25,10.95,22.5,773.00,1.8
2022-05-19,20:50:00,DRY,1.30,10.87,23.3,773.00,0.4
2022-05-19,20:55:00,DRY,0.90,10.90,24.0,773.50,1.2
2022-05-19,21:00:00,DRY,1.07,11.10,19.3,773.33,1.4
2022-05-19,21:05:00,DRY,1.75,11.30,19.0,774.00,1.9
2022-05-19,21:10:00,DRY,1.23,11.23,19.7,774.00,1.5
2022-05-19,21:15:00,DRY,1.65,11.30,21.0,774.00,0.9
2022-05-19,21:20:00,DRY,2.10,11.27,20.3,774.00,1.7
2022-05-19,21:25:00,DRY,1.75,11.15,20.5,774.00,1.0
2022-05-19,21:30:00,DRY,1.87,10.97,22.0,774.00,1.0
2022-05-19,21:35:00,DRY,2.60,10.90,22.5,774.00,1.5
2022-05-19,21:40:00,DRY,2.07,10.60,23.3,774.00,1.4
2022-05-19,21:45:00,DRY,2.45,10.40,24.0,774.00,0.8
2022-05-19,21:50:00,DRY,3.30,10.47,23.3,774.00,1.1
2022-05-19,21:55:00,DRY,3.65,10.55,23.5,774.00,1.2
2022-05-19,22:00:00,DRY,3.70,10.47,18.7,774.00,1.3
2022-05-19,22:05:00,DRY,3.25,10.45,15.0,774.00,0.9
2022-05-19,22:10:00,DRY,2.97,10.07,13.3,774.00,0.6
2022-05-19,22:15:00,DRY,3.95,10.00,13.0,774.00,1.0
2022-05-19,22:20:00,DRY,3.57,9.97,14.3,774.00,1.2
2022-05-19,22:25:00,DRY,3.45,10.00,17.0,774.00,1.1
2022-05-19,22:30:00,DRY,3.33,9.90,17.7,774.00,1.3
2022-05-19,22:35:00,DRY,3.70,9.85,18.0,774.00,1.4
2022-05-19,22:40:00,DRY,3.53,9.90,19.7,774.00,1.1
2022-05-19,22:45:00,DRY,4.25,10.10,21.0,774.00,1.3
2022-05-19,22:50:00,DRY,3.83,10.00,18.0,774.00,1.2
2022-05-19,22:55:00,DRY,4.65,9.95,16.0,774.00,1.2
2022-05-19,23:00:00,DRY,4.70,9.93,14.0,774.00,1.2
2022-05-19,23:05:00,DRY,3.90,9.90,12.0,774.00,1.1
2022-05-19,23:10:00,DRY,5.40,9.90,10.0,774.00,1.1
2022-05-19,23:15:00,DRY,5.50,9.85,8.0,774.00,1.8
2022-05-19,23:20:00,DRY,5.77,9.77,7.3,774.00,1.3
2022-05-19,23:25:00,DRY,6.25,9.45,8.0,774.00,1.0
2022-05-19,23:30:00,DRY,5.77,9.57,5.0,774.00,1.1
2022-05-19,23:35:00,DRY,5.65,9.45,6.5,774.00,1.2
2022-05-19,23:40:00,DRY,6.23,9.47,5.0,774.00,1.2
2022-05-19,23:45:00,DRY,6.30,9.35,4.5,774.00,0.9
2022-05-19,23:50:00,DRY,7.43,9.80,3.0,774.00,1.2
2022-05-19,23:55:00,DRY,5.75,9.55,2.5,774.00,1.4
2022-05-20,00:00:00,DRY,6.50,9.43,2.3,774.00,1.1
2022-05-20,00:05:00,DRY,6.05,9.35,2.5,774.00,1.9
2022-05-20,00:10:00,DRY,5.97,9.07,3.3,774.00,1.1
2022-05-20,00:15:00,DRY,6.60,8.80,4.5,774.00,1.1
2022-05-20,00:20:00,DRY,6.97,8.90,2.7,774.00,1.2
2022-05-20,00:25:00,DRY,5.35,8.70,3.0,774.00,1.8
2022-05-20,00:30:00,DRY,5.93,8.63,3.3,774.00,1.2
2022-05-20,00:35:00,DRY,6.10,8.90,3.0,774.00,1.2
2022-05-20,00:40:00,DRY,6.67,9.00,2.0,774.00,1.2
2022-05-20,00:45:00,DRY,5.40,8.70,3.0,774.00,1.1
2022-05-20,00:50:00,DRY,5.53,8.90,2.0,774.00,1.1
2022-05-20,00:55:00,DRY,6.95,8.95,2.0,774.00,1.1
2022-05-20,01:00:00,DRY,4.97,8.60,2.3,774.00,1.2
2022-05-20,01:05:00,DRY,6.80,8.60,2.0,774.00,1.4
2022-05-20,01:10:00,DRY,6.70,8.80,2.0,774.00,1.2
2022-05-20,01:15:00,DRY,7.30,9.15,1.5,774.00,1.2
2022-05-20,01:20:00,DRY,6.60,9.30,1.3,774.00,0.8
2022-05-20,01:25:00,DRY,5.70,9.30,1.5,774.00,1.2
2022-05-20,01:30:00,DRY,4.83,8.87,1.7,774.00,1.1
2022-05-20,01:35:00,DRY,7.85,8.90,2.0,774.00,1.1
2022-05-20,01:40:00,DRY,5.77,8.87,1.3,774.00,1.2
2022-05-20,01:45:00,DRY,5.60,8.60,2.0,774.00,0.9
2022-05-20,01:50:00,DRY,6.03,9.03,2.0,774.00,1.2
2022-05-20,01:55:00,DRY,6.90,9.15,2.0,774.00,0.9
2022-05-20,02:00:00,DRY,6.20,9.40,2.0,774.00,0.9
2022-05-20,02:05:00,DRY,5.30,9.75,5.0,774.00,1.2
2022-05-20,02:10:00,DRY,6.50,9.73,8.7,774.00,1.2
2022-05-20,02:15:00,DRY,5.25,9.85,10.0,774.00,1.3
2022-05-20,02:20:00,DRY,6.30,10.00,17.3,774.00,1.2
2022-05-20,02:25:00,DRY,6.40,10.00,20.0,774.00,1.1
2022-05-20,02:30:00,DRY,5.30,10.20,31.3,774.00,1.6
2022-05-20,02:35:00,DRY,6.55,10.30,35.0,774.00,1.8
2022-05-20,02:40:00,DRY,6.43,10.30,33.7,774.00,1.5
2022-05-20,02:45:00,DRY,4.90,10.35,34.0,773.50,1.1
2022-05-20,02:50:00,DRY,5.40,10.25,33.0,774.00,1.1
2022-05-20,02:55:00,DRY,5.70,10.10,35.0,773.50,1.3
2022-05-20,03:00:00,DRY,5.07,9.83,30.7,774.00,1.1
2022-05-20,03:05:00,DRY,5.60,9.60,29.5,773.50,1.2
2022-05-20,03:10:00,DRY,5.27,9.40,26.0,774.00,1.1
2022-05-20,03:15:00,DRY,5.55,9.15,20.0,774.00,1.1
2022-05-20,03:20:00,DRY,4.87,9.10,21.7,773.67,1.1
2022-05-20,03:25:00,DRY,5.95,9.25,32.0,773.00,1.1
2022-05-20,03:30:00,DRY,5.40,9.47,31.3,774.00,0.9
2022-05-20,03:35:00,DRY,5.40,9.60,34.0,773.50,1.2
2022-05-20,03:40:00,DRY,6.47,9.93,37.7,773.67,1.2
2022-05-20,03:45:00,DRY,6.15,9.95,38.5,773.50,1.4
2022-05-20,03:50:00,DRY,5.43,9.87,37.7,773.33,1.2
2022-05-20,03:55:00,DRY,5.15,9.85,38.0,774.00,1.1
2022-05-20,04:00:00,DRY,5.60,9.80,37.0,773.50,1.2
2022-05-20,04:05:00,DRY,4.80,9.50,33.5,774.00,1.6
2022-05-20,04:10:00,DRY,5.50,9.50,32.0,774.00,1.4
2022-05-20,04:15:00,DRY,5.75,9.35,32.5,774.00,1.2
2022-05-20,04:20:00,DRY,5.97,9.77,38.0,774.00,1.5
2022-05-20,04:25:00,DRY,6.25,10.15,38.5,774.00,1.4
2022-05-20,04:30:00,DRY,6.70,10.30,38.7,774.00,1.3
2022-05-20,04:35:00,DRY,5.90,10.20,37.5,774.00,1.2
2022-05-20,04:40:00,DRY,6.03,10.23,36.3,774.00,1.2
2022-05-20,04:45:00,DRY,5.25,9.80,37.0,774.00,1.2
2022-05-20,04:50:00,DRY,5.23,9.70,36.0,774.00,1.5
2022-05-20,04:55:00,DRY,5.75,9.90,35.5,774.00,1.2
2022-05-20,05:00:00,DRY,5.10,9.53,36.0,774.00,0.7
2022-05-20,05:05:00,DRY,4.65,9.35,36.0,774.00,0.6
2022-05-20,05:10:00,DRY,4.83,9.10,36.0,774.00,1.1
2022-05-20,05:15:00,DRY,6.30,8.90,37.5,774.00,1.2
2022-05-20,05:20:00,DRY,7.03,9.43,38.7,774.00,1.2
2022-05-20,05:25:00,DRY,7.25,9.50,39.0,774.00,1.2
2022-05-20,05:30:00,DRY,6.73,9.53,39.3,774.00,1.3
2022-05-20,05:35:00,DRY,7.00,9.60,40.5,774.00,1.3
2022-05-20,05:40:00,DRY,6.53,9.63,41.0,774.00,1.2
2022-05-20,05:45:00,DRY,6.55,9.55,41.5,774.00,1.2
2022-05-20,05:50:00,DRY,6.73,9.53,44.3,774.00,1.7
2022-05-20,05:55:00,DRY,7.90,9.40,46.5,774.00,1.6
2022-05-20,06:00:00,DRY,6.00,9.40,47.0,774.00,1.7
2022-05-20,06:05:00,DRY,5.15,9.20,45.5,774.00,3.0
2022-05-20,06:10:00,DRY,7.10,9.20,50.0,774.00,5.5
2022-05-20,06:15:00,DRY,5.85,9.10,49.0,774.00,7.3
2022-05-20,06:20:00,DRY,7.63,9.27,48.7,774.00,12.2
2022-05-20,06:25:00,DRY,7.55,9.50,48.0,774.00,18.7
2022-05-20,06:30:00,DRY,5.60,9.40,47.3,774.00,44.4
2022-05-20,06:35:00,DRY,6.75,9.30,49.0,774.00,63.8
2022-05-20,06:40:00,DRY,6.23,9.53,50.7,774.00,81.3
2022-05-20,06:45:00,DRY,6.55,9.70,52.0,774.00,101.5
2022-05-20,06:50:00,DRY,6.30,9.73,51.7,774.00,128.6
2022-05-20,06:55:00,DRY,7.05,9.80,51.0,774.00,153.2
2022-05-20,07:00:00,DRY,6.87,9.77,51.0,774.00,175.5
2022-05-20,07:05:00,DRY,5.95,9.95,50.5,774.00,197.5
2022-05-20,07:10:00,DRY,4.80,9.83,50.7,774.00,220.7
2022-05-20,07:15:00,DRY,4.95,9.90,50.0,774.00,243.4
2022-05-20,07:20:00,DRY,5.27,10.07,51.0,774.00,267.0
2022-05-20,07:25:00,DRY,5.90,10.20,50.0,774.00,290.0
2022-05-20,07:30:00,DRY,5.40,10.17,50.3,774.00,313.5
2022-05-20,07:35:00,DRY,6.30,10.35,50.0,774.00,337.2
2022-05-20,07:40:00,DRY,5.80,10.27,50.3,774.33,360.4
2022-05-20,07:45:00,DRY,5.05,10.10,51.5,774.50,383.5
2022-05-20,07:50:00,DRY,5.47,10.30,51.3,774.67,407.0
2022-05-20,07:55:00,DRY,6.25,10.35,51.5,774.50,428.5
2022-05-20,08:00:00,DRY,5.60,10.50,51.3,774.67,452.3
2022-05-20,08:05:00,DRY,5.50,10.50,52.0,775.00,475.1
2022-05-20,08:10:00,DRY,5.13,10.57,51.3,775.00,499.5
2022-05-20,08:15:00,DRY,6.10,10.70,50.5,775.00,521.6
2022-05-20,08:20:00,DRY,5.23,10.67,51.3,775.00,544.5
2022-05-20,08:25:00,DRY,7.00,10.80,51.0,775.00,571.5
2022-05-20,08:30:00,DRY,5.33,10.67,51.7,775.00,588.6
2022-05-20,08:35:00,DRY,5.40,10.65,51.5,775.00,611.0
2022-05-20,08:40:00,DRY,5.20,10.70,52.0,775.00,632.3
2022-05-20,08:45:00,DRY,5.55,10.70,52.5,775.00,653.0
2022-05-20,08:50:00,DRY,6.10,10.70,53.0,775.00,675.6
2022-05-20,08:55:00,DRY,5.55,10.90,51.5,775.00,695.8
2022-05-20,09:00:00,DRY,4.73,10.80,52.3,775.00,717.2
2022-05-20,09:05:00,DRY,5.10,10.90,53.0,775.00,736.6
2022-05-20,09:10:00,DRY,4.73,11.03,52.0,775.00,756.7
2022-05-20,09:15:00,DRY,4.40,11.25,51.5,775.00,776.2
2022-05-20,09:20:00,DRY,4.87,11.23,52.0,775.00,796.7
2022-05-20,09:25:00,DRY,4.70,11.05,52.5,775.00,816.2
2022-05-20,09:30:00,DRY,4.50,11.23,53.0,775.00,833.9
2022-05-20,09:35:00,DRY,4.55,11.35,52.0,775.00,852.5
2022-05-20,09:40:00,DRY,4.67,11.60,51.7,775.00,871.6
2022-05-20,09:45:00,DRY,4.55,11.15,52.5,775.00,889.8
2022-05-20,09:50:00,DRY,5.70,11.53,52.7,775.00,907.0
2022-05-20,09:55:00,DRY,4.45,11.50,53.0,775.00,924.5
2022-05-20,10:00:00,DRY,5.43,11.30,51.3,775.00,938.6
2022-05-20,10:05:00,DRY,4.65,11.75,51.5,775.00,954.3
2022-05-20,10:10:00,DRY,4.57,11.60,53.0,775.00,969.0
2022-05-20,10:15:00,DRY,3.90,11.65,55.5,775.00,983.7
2022-05-20,10:20:00,DRY,4.53,11.70,53.7,775.00,999.4
2022-05-20,10:25:00,DRY,3.90,11.70,49.0,775.00,1013.4
2022-05-20,10:30:00,DRY,4.33,11.77,52.3,775.00,1027.7
2022-05-20,10:35:00,DRY,5.20,11.80,55.0,775.00,1040.4
2022-05-20,10:40:00,DRY,5.43,11.77,53.3,775.00,1054.0
2022-05-20,10:45:00,DRY,4.90,11.95,50.5,775.00,1067.2
2022-05-20,10:50:00,DRY,4.97,11.93,52.0,775.00,1079.8
2022-05-20,10:55:00,DRY,3.95,12.05,51.5,775.00,1091.8
2022-05-20,11:00:00,DRY,4.63,11.77,53.0,775.00,1101.7
2022-05-20,11:05:00,DRY,4.65,11.60,54.5,775.00,1113.2
2022-05-20,11:10:00,DRY,4.07,11.90,53.7,775.00,1124.2
2022-05-20,11:15:00,DRY,5.00,11.75,53.5,775.00,1132.8
2022-05-20,11:20:00,DRY,5.07,11.57,55.0,775.00,1143.2
2022-05-20,11:25:00,DRY,5.30,11.95,51.5,775.00,1152.7
2022-05-20,11:30:00,DRY,3.70,12.17,50.0,775.00,1160.7
2022-05-20,11:35:00,DRY,5.30,12.05,53.5,775.00,1169.5
2022-05-20,11:40:00,DRY,4.63,12.03,54.7,775.00,1176.1
2022-05-20,11:45:00,DRY,6.15,12.20,50.5,775.00,1183.7
2022-05-20,11:50:00,DRY,5.87,11.83,54.3,775.00,1188.5
2022-05-20,11:55:00,DRY,4.70,11.95,53.5,775.00,1195.0
2022-05-20,12:00:00,DRY,4.83,12.00,53.0,775.00,1200.8
2022-05-20,12:05:00,DRY,4.50,12.45,53.0,775.00,1206.0